Chattahoochee River Whitewater Weather Center

Moon Phase Calendar



Online Cameras

 


      

Current Conditions in Phenix City
12/8/2022 11:55:12 PM

57°F
Feels Like 57
Mist
Humidity
100%
Pressure
30.15"
Wind
0
Dew Point
57°F
UV Index
0/10 (Low)
Visibility
1 mi

Hourly Forecast

Date & Time Thu, Dec 8
11:00 PM
Fri, Dec 9
12:00 AM
Fri, Dec 9
1:00 AM
Fri, Dec 9
2:00 AM
Fri, Dec 9
3:00 AM
Fri, Dec 9
4:00 AM
Fri, Dec 9
5:00 AM
Fri, Dec 9
6:00 AM
Fri, Dec 9
7:00 AM
Fri, Dec 9
8:00 AM
Fri, Dec 9
9:00 AM
Fri, Dec 9
10:00 AM
Fri, Dec 9
11:00 AM
Fri, Dec 9
12:00 PM
Fri, Dec 9
1:00 PM
Fri, Dec 9
2:00 PM
Fri, Dec 9
3:00 PM
Fri, Dec 9
4:00 PM
Fri, Dec 9
5:00 PM
Fri, Dec 9
6:00 PM
Fri, Dec 9
7:00 PM
Fri, Dec 9
8:00 PM
Fri, Dec 9
9:00 PM
Fri, Dec 9
10:00 PM
Fri, Dec 9
11:00 PM
Sat, Dec 10
12:00 AM
Sat, Dec 10
1:00 AM
Sat, Dec 10
2:00 AM
Sat, Dec 10
3:00 AM
Sat, Dec 10
4:00 AM
Sat, Dec 10
5:00 AM
Sat, Dec 10
6:00 AM
Sat, Dec 10
7:00 AM
Sat, Dec 10
8:00 AM
Sat, Dec 10
9:00 AM
Sat, Dec 10
10:00 AM
Sat, Dec 10
11:00 AM
Sat, Dec 10
12:00 PM
Sat, Dec 10
1:00 PM
Sat, Dec 10
2:00 PM
Sat, Dec 10
3:00 PM
Sat, Dec 10
4:00 PM
Sat, Dec 10
5:00 PM
Sat, Dec 10
6:00 PM
Sat, Dec 10
7:00 PM
Sat, Dec 10
8:00 PM
Sat, Dec 10
9:00 PM
Sat, Dec 10
10:00 PM
Condition
Clear

Clear

Clear

Clear

Clear

Clear

Clear

Clouds

Clouds

Clear

Clouds

Clouds

Clouds

Clouds

Clouds

Clouds

Clouds

Clouds

Clouds

Clouds

Clouds

Clouds

Clouds

Clouds

Clouds

Clouds

Clouds

Clouds

Clouds

Clouds

Clouds

Clouds

Clouds

Clouds

Clouds

Clouds

Clouds

Clouds

Clouds

Clouds

Clouds

Clouds

Clouds

Clouds

Clouds

Clouds

Clouds

Clouds
Temperature 58°F57°F58°F59°F60°F61°F62°F62°F61°F62°F65°F69°F73°F75°F77°F77°F77°F76°F73°F71°F70°F70°F69°F68°F67°F67°F66°F66°F66°F65°F65°F65°F65°F65°F67°F67°F69°F69°F69°F69°F69°F69°F68°F65°F64°F64°F64°F64°F
Feels Like 58°F57°F58°F59°F60°F61°F62°F62°F62°F62°F66°F69°F73°F75°F77°F77°F77°F76°F73°F71°F70°F70°F69°F68°F68°F67°F67°F67°F66°F65°F66°F66°F66°F66°F67°F68°F69°F69°F69°F69°F69°F69°F68°F65°F64°F64°F64°F64°F
Cloudiness 10%0%7%4%4%4%5%11%11%9%16%15%17%18%26%87%85%83%82%78%80%86%82%78%80%83%85%99%99%86%89%91%93%99%100%100%100%100%100%100%100%99%99%100%100%100%100%100%
Visibility 6 mi6 mi6 mi6 mi6 mi6 mi6 mi6 mi6 mi6 mi6 mi6 mi6 mi6 mi6 mi6 mi6 mi6 mi6 mi6 mi6 mi6 mi6 mi6 mi6 mi6 mi6 mi6 mi6 mi6 mi6 mi6 mi6 mi6 mi6 mi6 mi6 mi6 mi6 mi6 mi6 mi6 mi6 mi6 mi6 mi6 mi6 mi6 mi
Precipitation 0%0%0%0%0%0%0%0%0%0%0%0%0%0%0%19%30%26%26%26%26%22%22%19%19%19%19%8%12%4%4%0%0%0%0%0%0%0%0%55%51%56%56%56%52%0%0%0%
Humidity 98%100%98%97%95%95%94%94%94%93%84%75%68%63%59%58%57%61%68%73%72%74%76%80%81%83%85%86%87%91%91%91%91%91%88%86%84%83%82%82%81%81%84%91%93%92%90%89%
Dew Point 58°F57°F57°F58°F59°F60°F60°F59°F59°F59°F60°F61°F61°F61°F61°F61°F60°F61°F62°F61°F61°F60°F61°F61°F61°F61°F61°F61°F62°F62°F62°F62°F62°F62°F63°F63°F63°F63°F63°F63°F62°F62°F62°F62°F61°F61°F60°F60°F
Pressure 30.15"30.15"30.15"30.15"30.12"30.12"30.12"30.12"30.15"30.15"30.15"30.15"30.15"30.15"30.09"30.09"30.06"30.06"30.06"30.09"30.09"30.09"30.12"30.09"30.12"30.12"30.12"30.12"30.12"30.12"30.12"30.12"30.12"30.15"30.15"30.18"30.18"30.15"30.12"30.12"30.12"30.09"30.12"30.12"30.12"30.15"30.15"30.15"
Wind Speed 4 mph3.8 mph3.9 mph3.7 mph3.5 mph3.5 mph3.3 mph3 mph3.1 mph3 mph3.2 mph4 mph4.8 mph5.7 mph6.2 mph6.8 mph7.1 mph6.2 mph5 mph4.2 mph4.2 mph3.9 mph3.9 mph3.7 mph3.4 mph3 mph2.9 mph2.7 mph2.3 mph2.9 mph2.4 mph1.3 mph1.1 mph1.4 mph2 mph3.3 mph4.7 mph5.6 mph5.4 mph5.2 mph5.5 mph5.5 mph5.6 mph5.8 mph6 mph6.6 mph7 mph7.1 mph
Wind
Direction
275°
W
276°
W
271°
W
271°
W
275°
W
279°
W
277°
W
273°
W
281°
W
273°
W
266°
W
260°
W
258°
WSW
266°
W
265°
W
262°
W
263°
W
259°
W
265°
W
258°
WSW
242°
WSW
252°
WSW
276°
W
306°
NW
323°
NW
322°
NW
307°
NW
312°
NW
322°
NW
332°
NNW
335°
NNW
351°
N
18°
NNE
38°
NE
47°
NE
73°
ENE
83°
E
87°
E
92°
E
96°
E
89°
E
89°
E
90°
E
92°
E
85°
E
89°
E
93°
E
99°
E

Daily Forecast

Date High Low Precip. Humidity
Today
Dec 8

Clouds
78 °F
58 °F
7%
62%
Friday
Dec 9

Clouds
77 °F
57 °F
30%
63%
Saturday
Dec 10

Clouds
69 °F
63 °F
56%
83%
Sunday
Dec 11

Rain
71 °F
61 °F
96%
83%
Monday
Dec 12

Clouds
69 °F
62 °F
15%
80%
Tuesday
Dec 13

Rain
61 °F
58 °F
20%
73%
Wednesday
Dec 14

Rain
65 °F
56 °F
100%
74%
Thursday
Dec 15

Rain
64 °F
52 °F
100%
58%
Friday
Dec 16

Clear
52 °F
41 °F
0%
44%
Saturday
Dec 17

Clear
47 °F
35 °F
0%
44%
Sunday
Dec 18

Clouds
48 °F
31 °F
0%
42%
Monday
Dec 19

Clouds
48 °F
31 °F
0%
39%
Tuesday
Dec 20

Clouds
51 °F
33 °F
0%
36%
Wednesday
Dec 21

Rain
61 °F
44 °F
100%
52%
Thursday
Dec 22

Rain
66 °F
57 °F
100%
80%
Friday
Dec 23

Rain
67 °F
55 °F
100%
97%

Temperature 8-14 Day Outlook



Precipitation 8-14 Day Outlook






About Us
Contact Us
Site Map
Search Site
Advertise With Us
   
www.ChattahoocheeRiverWhitewater.com
THE CHATTAHOOCHEE RIVER WHITEWATER WEBSITE

Copyright 2022, Discover Rivers
Privacy    |    Legal